timestamp,latitude,longitude,wave_ht_sig,wave_period_max,wave_ht_max,wave_dir_avg,wave_spread_avg
2019-07-19T16:20:00Z,44.5973,-63.5427,0.26,5.56,0.48,119,38
2019-07-19T16:40:00Z,44.5973,-63.5427,0.33,3.28,0.62,108,34
2019-07-19T17:00:00Z,44.5973,-63.5427,0.24,4.57,0.41,84,39
2019-07-19T17:20:00Z,44.5973,-63.5427,0.25,4.65,0.43,69,39
2019-07-19T17:40:00Z,44.5973,-63.5427,0.23,3.24,0.39,140,34
2019-07-19T18:00:00Z,44.5973,-63.5427,0.24,3.36,0.44,152,34
2019-07-19T18:20:00Z,44.5973,-63.5427,0.26,3.16,0.48,117,34
2019-07-19T18:40:00Z,44.5973,-63.5427,0.25,3.41,0.45,145,34
2019-07-19T19:00:00Z,44.5973,-63.5427,0.24,6.09,0.42,154,34
2019-07-19T19:20:00Z,44.5973,-63.5427,0.22,3.41,0.37,135,34
2019-07-19T19:40:00Z,44.5973,-63.5427,0.20,3.71,0.35,155,34
2019-07-19T20:00:00Z,44.5973,-63.5427,0.31,3.65,0.57,132,37
2019-07-19T20:20:00Z,44.5973,-63.5427,0.24,3.24,0.40,150,34
2019-07-19T20:40:00Z,44.5973,-63.5427,0.23,3.28,0.41,140,36
2019-07-19T21:00:00Z,44.5973,-63.5427,0.20,6.91,0.37,143,36
2019-07-19T21:20:00Z,44.5973,-63.5427,0.25,3.32,0.43,107,39
2019-07-19T21:40:00Z,44.5973,-63.5427,0.25,3.41,0.50,138,36
2019-07-19T22:00:00Z,44.5973,-63.5427,0.26,3.93,0.46,137,36
2019-07-19T22:20:00Z,44.5973,-63.5427,0.20,3.24,0.35,138,34
2019-07-19T22:40:00Z,44.5973,-63.5427,0.21,3.32,0.34,134,35
2019-07-19T23:00:00Z,44.5973,-63.5427,0.21,4.92,0.35,133,36
2019-07-19T23:20:00Z,44.5973,-63.5427,0.21,3.20,0.38,140,35
2019-07-19T23:40:00Z,44.5973,-63.5427,0.19,6.09,0.33,152,34
2019-07-20T00:00:00Z,44.5973,-63.5427,0.20,5.95,0.38,146,36
2019-07-20T00:20:00Z,44.5973,-63.5427,0.21,3.24,0.38,109,34
2019-07-20T01:00:00Z,44.5973,-63.5427,0.25,5.81,0.45,110,34
2019-07-20T01:20:00Z,44.5973,-63.5427,0.25,3.16,0.48,147,34
2019-07-20T01:40:00Z,44.5973,-63.5427,0.22,6.56,0.41,84,36
2019-07-20T02:00:00Z,44.5973,-63.5427,0.22,5.22,0.39,128,37
2019-07-20T02:20:00Z,44.5973,-63.5427,0.23,3.28,0.41,139,35
2019-07-20T02:40:00Z,44.5973,-63.5427,0.26,3.24,0.42,163,35
2019-07-20T03:00:00Z,44.5973,-63.5427,0.28,3.32,0.48,116,35
2019-07-20T03:20:00Z,44.5973,-63.5427,0.27,3.32,0.45,161,33
2019-07-20T03:40:00Z,44.5973,-63.5427,0.27,3.41,0.51,154,33
2019-07-20T04:00:00Z,44.5973,-63.5427,0.26,3.36,0.46,153,34
2019-07-20T04:20:00Z,44.5973,-63.5427,0.29,3.45,0.51,146,33
2019-07-20T04:40:00Z,44.5973,-63.5427,0.28,3.36,0.52,156,33
2019-07-20T05:00:00Z,44.5973,-63.5427,0.33,4.26,0.60,118,35
2019-07-20T05:20:00Z,44.5973,-63.5427,0.29,3.32,0.53,159,34
2019-07-20T05:40:00Z,44.5973,-63.5427,0.28,3.28,0.53,131,35
2019-07-20T06:00:00Z,44.5973,-63.5427,0.25,3.55,0.44,152,34
2019-07-20T06:20:00Z,44.5973,-63.5427,0.23,4.92,0.40,69,34
2019-07-20T06:40:00Z,44.5973,-63.5427,0.23,5.44,0.40,116,34
2019-07-20T07:00:00Z,44.5973,-63.5427,0.26,5.22,0.52,110,35
2019-07-20T07:20:00Z,44.5973,-63.5427,0.25,5.22,0.43,75,35
2019-07-20T07:40:00Z,44.5973,-63.5427,0.25,5.01,0.43,98,35
2019-07-20T08:00:00Z,44.5973,-63.5427,0.25,3.60,0.44,114,34
2019-07-20T08:20:00Z,44.5973,-63.5427,0.27,3.28,0.48,151,34
2019-07-20T08:40:00Z,44.5973,-63.5427,0.30,3.12,0.49,132,33
2019-07-20T09:00:00Z,44.5973,-63.5427,0.29,4.41,0.46,121,35
2019-07-20T09:20:00Z,44.5973,-63.5427,0.30,4.57,0.61,99,38
2019-07-20T09:40:00Z,44.5973,-63.5427,0.27,5.56,0.50,128,34
2019-07-20T10:00:00Z,44.5973,-63.5427,0.29,3.32,0.49,133,33
2019-07-20T10:20:00Z,44.5973,-63.5427,0.28,5.33,0.48,124,36
2019-07-20T10:40:00Z,44.5973,-63.5427,0.34,5.33,0.66,111,34
2019-07-20T11:00:00Z,44.5973,-63.5427,0.26,3.24,0.43,104,34
2019-07-20T11:20:00Z,44.5973,-63.5427,0.27,4.57,0.48,102,36
2019-07-20T12:00:00Z,44.5973,-63.5427,0.27,3.28,0.47,133,34
2019-07-20T12:20:00Z,44.5973,-63.5427,0.27,3.45,0.44,125,34
2019-07-20T12:40:00Z,44.5973,-63.5427,0.30,3.20,0.52,138,34
2019-07-20T13:00:00Z,44.5973,-63.5427,0.31,3.16,0.51,131,33
2019-07-20T13:20:00Z,44.5973,-63.5427,0.33,3.93,0.61,127,41
2019-07-20T13:40:00Z,44.5973,-63.5427,0.30,3.41,0.51,129,34
2019-07-20T14:00:00Z,44.5973,-63.5427,0.31,3.87,0.52,72,36
2019-07-20T14:20:00Z,44.5973,-63.5427,0.34,3.24,0.60,112,34
2019-07-20T14:40:00Z,44.5973,-63.5427,0.29,4.06,0.50,127,34
2019-07-20T15:00:00Z,44.5973,-63.5427,0.28,5.33,0.51,121,39
2019-07-20T15:20:00Z,44.5973,-63.5427,0.30,3.20,0.49,158,34
2019-07-20T15:40:00Z,44.5973,-63.5427,0.30,3.60,0.51,139,35
2019-07-20T16:00:00Z,44.5973,-63.5427,0.28,3.08,0.49,119,34
2019-07-20T16:20:00Z,44.5973,-63.5427,0.27,3.24,0.46,111,34
2019-07-20T16:40:00Z,44.5973,-63.5427,0.30,3.24,0.51,93,34
2019-07-20T17:00:00Z,44.5973,-63.5427,0.27,3.50,0.48,114,35
2019-07-20T17:20:00Z,44.5973,-63.5427,0.29,3.45,0.55,127,36
2019-07-20T17:40:00Z,44.5973,-63.5427,0.36,3.45,0.68,131,34
2019-07-20T18:00:00Z,44.5973,-63.5427,0.34,3.93,0.59,102,40
2019-07-20T18:20:00Z,44.5973,-63.5427,0.33,3.36,0.58,120,35
2019-07-20T18:40:00Z,44.5973,-63.5427,0.29,3.28,0.48,135,34
2019-07-20T19:00:00Z,44.5973,-63.5427,0.30,3.36,0.52,121,34
2019-07-20T19:20:00Z,44.5973,-63.5427,0.30,3.41,0.53,97,41
2019-07-20T19:40:00Z,44.5973,-63.5427,0.28,3.41,0.46,131,41
2019-07-20T20:00:00Z,44.5973,-63.5427,0.26,3.08,0.44,117,43
2019-07-20T20:20:00Z,44.5973,-63.5427,0.28,3.08,0.47,119,39
2019-07-20T20:40:00Z,44.5973,-63.5427,0.31,3.55,0.55,96,46
2019-07-20T21:00:00Z,44.5973,-63.5427,0.26,3.32,0.51,125,36
2019-07-20T21:20:00Z,44.5973,-63.5427,0.24,3.20,0.44,125,34
2019-07-20T21:40:00Z,44.5973,-63.5427,0.25,4.41,0.44,130,40
2019-07-20T22:00:00Z,44.5973,-63.5427,0.25,8.25,0.46,135,34
2019-07-20T22:20:00Z,44.5973,-63.5427,0.30,3.16,0.54,107,34
2019-07-20T22:40:00Z,44.5973,-63.5427,0.27,8.25,0.46,154,34
2019-07-20T23:00:00Z,44.5973,-63.5427,0.32,3.41,0.62,156,36
2019-07-20T23:20:00Z,44.5973,-63.5427,0.28,8.25,0.46,137,34
2019-07-20T23:40:00Z,44.5973,-63.5427,0.28,6.09,0.51,77,34
2019-07-21T00:00:00Z,44.5973,-63.5427,0.29,3.32,0.52,76,35
2019-07-21T00:20:00Z,44.5973,-63.5427,0.28,5.33,0.46,120,35
2019-07-21T00:40:00Z,44.5973,-63.5427,0.31,4.41,0.54,122,36
2019-07-21T01:00:00Z,44.5973,-63.5427,0.32,5.22,0.53,123,34
2019-07-21T01:20:00Z,44.5973,-63.5427,0.30,3.45,0.58,116,35
2019-07-21T01:40:00Z,44.5973,-63.5427,0.31,3.28,0.55,98,34
2019-07-21T02:00:00Z,44.5973,-63.5427,0.29,4.41,0.53,98,39
2019-07-21T02:20:00Z,44.5973,-63.5427,0.29,4.65,0.53,133,38
2019-07-21T02:40:00Z,44.5973,-63.5427,0.28,3.32,0.52,131,33
2019-07-21T03:00:00Z,44.5973,-63.5427,0.28,3.93,0.45,138,33
2019-07-21T03:20:00Z,44.5973,-63.5427,0.27,4.26,0.48,149,34
2019-07-21T03:40:00Z,44.5973,-63.5427,0.28,3.41,0.51,141,33
2019-07-21T04:00:00Z,44.5973,-63.5427,0.29,3.45,0.51,151,33
2019-07-21T04:20:00Z,44.5973,-63.5427,0.30,3.28,0.53,136,33
2019-07-21T04:40:00Z,44.5973,-63.5427,0.28,4.49,0.48,117,35
2019-07-21T05:00:00Z,44.5973,-63.5427,0.26,3.41,0.47,133,34
2019-07-21T05:20:00Z,44.5973,-63.5427,0.24,3.28,0.43,135,33
2019-07-21T05:40:00Z,44.5973,-63.5427,0.28,3.28,0.47,118,34
2019-07-21T06:00:00Z,44.5973,-63.5427,0.29,3.41,0.51,132,34
2019-07-21T06:20:00Z,44.5973,-63.5427,0.27,9.14,0.47,119,34
2019-07-21T06:40:00Z,44.5973,-63.5427,0.27,3.60,0.44,128,34
2019-07-21T07:00:00Z,44.5973,-63.5427,0.30,3.45,0.54,140,34
2019-07-21T07:20:00Z,44.5973,-63.5427,0.30,3.28,0.52,129,34
2019-07-21T07:40:00Z,44.5973,-63.5427,0.31,3.71,0.53,150,34
2019-07-21T08:00:00Z,44.5973,-63.5427,0.32,3.82,0.57,148,34
2019-07-21T08:20:00Z,44.5973,-63.5427,0.33,3.28,0.53,150,34
2019-07-21T08:40:00Z,44.5973,-63.5427,0.33,3.24,0.60,163,34
2019-07-21T09:00:00Z,44.5973,-63.5427,0.31,8.82,0.52,145,34
2019-07-21T09:20:00Z,44.5973,-63.5427,0.35,3.20,0.58,138,34
2019-07-21T09:40:00Z,44.5973,-63.5427,0.37,3.55,0.65,90,35
2019-07-21T10:00:00Z,44.5973,-63.5427,0.33,3.20,0.57,142,34
2019-07-21T10:20:00Z,44.5973,-63.5427,0.36,3.28,0.60,76,37
2019-07-21T10:40:00Z,44.5973,-63.5427,0.41,3.24,0.84,123,34
2019-07-21T11:00:00Z,44.5973,-63.5427,0.39,3.41,0.66,137,34
2019-07-21T11:20:00Z,44.5973,-63.5427,0.39,3.24,0.68,133,34
2019-07-21T11:40:00Z,44.5973,-63.5427,0.39,3.36,0.75,145,35
2019-07-21T12:00:00Z,44.5973,-63.5427,0.37,8.25,0.59,145,34
2019-07-21T12:20:00Z,44.5973,-63.5427,0.36,3.24,0.66,147,34
2019-07-21T12:40:00Z,44.5973,-63.5427,0.37,3.28,0.64,151,34
2019-07-21T13:20:00Z,44.5973,-63.5427,0.34,3.24,0.56,130,34
2019-07-21T13:40:00Z,44.5973,-63.5427,0.33,3.32,0.53,142,34
2019-07-21T14:00:00Z,44.5973,-63.5427,0.30,3.20,0.52,152,34
2019-07-21T14:20:00Z,44.5973,-63.5427,0.31,3.36,0.54,153,33
2019-07-21T14:40:00Z,44.5973,-63.5427,0.34,3.12,0.60,160,34
2019-07-21T15:00:00Z,44.5973,-63.5427,0.30,3.12,0.51,155,34
2019-07-21T15:20:00Z,44.5973,-63.5427,0.31,3.16,0.58,146,34
2019-07-21T15:40:00Z,44.5973,-63.5427,0.32,3.08,0.58,159,34
2019-07-21T16:00:00Z,44.5973,-63.5427,0.28,3.41,0.50,131,34
2019-07-21T16:20:00Z,44.5973,-63.5427,0.31,3.55,0.54,129,34
2019-07-21T16:40:00Z,44.5973,-63.5427,0.29,3.16,0.52,160,34
2019-07-21T17:00:00Z,44.5973,-63.5427,0.28,3.20,0.51,147,34
2019-07-21T17:20:00Z,44.5973,-63.5427,0.30,3.41,0.50,114,42
2019-07-21T17:40:00Z,44.5973,-63.5427,0.29,3.08,0.51,149,36
2019-07-21T18:00:00Z,44.5973,-63.5427,0.27,3.36,0.46,156,35
2019-07-21T18:20:00Z,44.5973,-63.5427,0.27,3.28,0.44,124,35
2019-07-21T18:40:00Z,44.5973,-63.5427,0.26,3.41,0.46,64,34
2019-07-21T19:00:00Z,44.5973,-63.5427,0.26,3.04,0.49,151,35
2019-07-21T19:20:00Z,44.5973,-63.5427,0.28,3.08,0.47,153,34
2019-07-21T19:40:00Z,44.5973,-63.5427,0.27,8.00,0.45,121,35
2019-07-21T20:00:00Z,44.5973,-63.5427,0.29,3.55,0.59,126,35
2019-07-21T20:20:00Z,44.5973,-63.5427,0.26,3.32,0.45,114,40
2019-07-21T20:40:00Z,44.5973,-63.5427,0.29,3.41,0.56,141,36
2019-07-21T21:00:00Z,44.5973,-63.5427,0.29,3.36,0.53,153,33
2019-07-21T21:20:00Z,44.5973,-63.5427,0.36,3.32,0.62,119,36
2019-07-21T21:40:00Z,44.5973,-63.5427,0.38,3.20,0.65,136,34
2019-07-21T22:00:00Z,44.5973,-63.5427,0.39,3.36,0.71,124,34
2019-07-21T22:20:00Z,44.5973,-63.5427,0.37,3.76,0.63,130,36
2019-07-21T22:40:00Z,44.5973,-63.5427,0.36,3.28,0.59,128,34
2019-07-21T23:00:00Z,44.5973,-63.5427,0.40,3.24,0.67,127,36
2019-07-21T23:20:00Z,44.5973,-63.5427,0.37,3.65,0.68,129,34
2019-07-21T23:40:00Z,44.5973,-63.5427,0.39,3.50,0.72,96,40
2019-07-22T00:00:00Z,44.5973,-63.5427,0.37,3.65,0.63,74,41
2019-07-22T00:20:00Z,44.5973,-63.5427,0.34,4.33,0.62,108,39
2019-07-22T00:40:00Z,44.5973,-63.5427,0.34,3.24,0.60,105,34
2019-07-22T01:00:00Z,44.5973,-63.5427,0.34,3.28,0.60,69,36
2019-07-22T01:20:00Z,44.5973,-63.5427,0.36,3.45,0.63,144,34
2019-07-22T01:40:00Z,44.5973,-63.5427,0.34,3.50,0.57,150,34
2019-07-22T02:00:00Z,44.5973,-63.5427,0.33,3.76,0.57,157,34
2019-07-22T02:20:00Z,44.5973,-63.5427,0.32,3.45,0.54,48,36
2019-07-22T02:40:00Z,44.5973,-63.5427,0.31,8.00,0.57,118,36
2019-07-22T03:00:00Z,44.5973,-63.5427,0.31,4.92,0.57,123,34
2019-07-22T03:20:00Z,44.5973,-63.5427,0.33,6.09,0.57,155,35
2019-07-22T03:40:00Z,44.5973,-63.5427,0.31,4.49,0.54,122,35
2019-07-22T04:00:00Z,44.5973,-63.5427,0.31,5.22,0.50,151,35
2019-07-22T04:20:00Z,44.5973,-63.5427,0.29,8.00,0.52,159,35
2019-07-22T04:40:00Z,44.5973,-63.5427,0.26,4.65,0.44,131,37
2019-07-22T05:00:00Z,44.5973,-63.5427,0.26,3.71,0.47,150,34
2019-07-22T05:20:00Z,44.5973,-63.5427,0.25,3.32,0.45,150,33
2019-07-22T05:40:00Z,44.5973,-63.5427,0.23,4.92,0.41,88,35
2019-07-22T06:00:00Z,44.5973,-63.5427,0.25,3.65,0.40,134,35
2019-07-22T06:20:00Z,44.5973,-63.5427,0.25,3.55,0.38,146,34
2019-07-22T06:40:00Z,44.5973,-63.5427,0.26,3.55,0.46,139,35
2019-07-22T07:00:00Z,44.5973,-63.5427,0.26,3.50,0.47,96,34
2019-07-22T07:20:00Z,44.5973,-63.5427,0.26,3.93,0.47,119,34
2019-07-22T07:40:00Z,44.5973,-63.5427,0.25,5.01,0.45,136,35
2019-07-22T08:00:00Z,44.5973,-63.5427,0.27,6.40,0.53,158,34
2019-07-22T08:20:00Z,44.5973,-63.5427,0.33,4.74,0.52,62,37
2019-07-22T08:40:00Z,44.5973,-63.5427,0.25,4.00,0.39,106,36
2019-07-22T09:00:00Z,44.5973,-63.5427,0.25,3.36,0.41,135,34
2019-07-22T09:20:00Z,44.5973,-63.5427,0.27,3.45,0.46,116,34
2019-07-22T09:40:00Z,44.5973,-63.5427,0.27,3.28,0.46,158,34
2019-07-22T10:00:00Z,44.5973,-63.5427,0.31,3.65,0.59,152,34
2019-07-22T10:20:00Z,44.5973,-63.5427,0.32,5.44,0.53,138,34
2019-07-22T10:40:00Z,44.5973,-63.5427,0.28,7.75,0.46,119,34
2019-07-22T11:00:00Z,44.5973,-63.5427,0.34,3.50,0.58,146,34
2019-07-22T11:20:00Z,44.5973,-63.5427,0.31,4.92,0.58,136,36
2019-07-22T11:40:00Z,44.5973,-63.5427,0.36,5.11,0.64,137,38
2019-07-22T12:00:00Z,44.5973,-63.5427,0.34,5.33,0.60,142,36
2019-07-22T12:20:00Z,44.5973,-63.5427,0.31,8.00,0.49,135,33
2019-07-22T13:00:00Z,44.5973,-63.5427,0.21,7.31,0.39,92,39
2019-07-22T13:20:00Z,44.5973,-63.5427,0.26,7.75,0.47,114,44
2019-07-22T13:40:00Z,44.5973,-63.5427,0.26,2.94,0.45,150,34
2019-07-22T14:00:00Z,44.5973,-63.5427,0.29,3.71,0.52,86,35
2019-07-22T14:20:00Z,44.5973,-63.5427,0.25,3.71,0.44,121,34
2019-07-22T14:40:00Z,44.5973,-63.5427,0.25,3.01,0.40,127,34
2019-07-22T15:00:00Z,44.5973,-63.5427,0.23,3.04,0.44,136,34
2019-07-22T15:20:00Z,44.5973,-63.5427,0.25,3.04,0.43,133,34
2019-07-22T15:40:00Z,44.5973,-63.5427,0.27,3.04,0.52,138,34
2019-07-22T16:00:00Z,44.5973,-63.5427,0.26,3.01,0.51,142,35
2019-07-22T16:20:00Z,44.5973,-63.5427,0.22,2.97,0.40,125,34
2019-07-22T16:40:00Z,44.5973,-63.5427,0.23,3.16,0.40,123,35
2019-07-22T17:00:00Z,44.5973,-63.5427,0.23,3.01,0.43,130,34
2019-07-22T17:20:00Z,44.5973,-63.5427,0.26,2.90,0.52,135,34
2019-07-22T17:40:00Z,44.5973,-63.5427,0.25,3.04,0.44,101,37
2019-07-22T18:00:00Z,44.5973,-63.5427,0.28,2.94,0.48,112,38
2019-07-22T18:20:00Z,44.5973,-63.5427,0.25,2.94,0.47,92,35
2019-07-22T18:40:00Z,44.5973,-63.5427,0.22,2.87,0.39,75,40
2019-07-22T19:00:00Z,44.5973,-63.5427,0.24,2.97,0.40,95,38
2019-07-22T19:20:00Z,44.5973,-63.5427,0.21,3.04,0.37,93,35
2019-07-22T19:40:00Z,44.5973,-63.5427,0.19,8.00,0.34,148,35
2019-07-22T20:00:00Z,44.5973,-63.5427,0.19,8.25,0.36,161,34
2019-07-22T20:20:00Z,44.5973,-63.5427,0.18,8.00,0.33,128,34
2019-07-22T20:40:00Z,44.5973,-63.5427,0.23,2.94,0.38,132,34
2019-07-22T21:00:00Z,44.5973,-63.5427,0.26,2.94,0.41,110,36
2019-07-22T21:20:00Z,44.5973,-63.5427,0.22,2.97,0.40,106,35
2019-07-22T21:40:00Z,44.5973,-63.5427,0.29,3.16,0.51,113,35
2019-07-22T22:00:00Z,44.5973,-63.5427,0.22,8.53,0.37,127,34
2019-07-22T22:20:00Z,44.5973,-63.5427,0.19,7.75,0.34,152,35
2019-07-22T22:40:00Z,44.5973,-63.5427,0.24,3.01,0.40,125,39
2019-07-22T23:00:00Z,44.5973,-63.5427,0.18,2.90,0.33,146,33
2019-07-22T23:20:00Z,44.5973,-63.5427,0.22,6.56,0.42,139,35
2019-07-22T23:40:00Z,44.5973,-63.5427,0.19,7.75,0.34,155,34
2019-07-23T00:00:00Z,44.5973,-63.5427,0.18,6.91,0.31,152,35
2019-07-23T00:20:00Z,44.5973,-63.5427,0.20,7.52,0.32,161,34
2019-07-23T00:40:00Z,44.5973,-63.5427,0.19,8.25,0.33,155,35
2019-07-23T01:00:00Z,44.5973,-63.5427,0.20,8.00,0.35,158,35
2019-07-23T01:20:00Z,44.5973,-63.5427,0.19,8.00,0.33,161,34
2019-07-23T01:40:00Z,44.5973,-63.5427,0.18,7.75,0.29,156,35
2019-07-23T02:00:00Z,44.5973,-63.5427,0.19,5.95,0.32,154,34
2019-07-23T02:20:00Z,44.5973,-63.5427,0.20,8.00,0.37,161,34
2019-07-23T03:00:00Z,44.5973,-63.5427,0.20,6.73,0.34,150,36
2019-07-23T03:20:00Z,44.5973,-63.5427,0.21,6.73,0.36,151,35
2019-07-23T03:40:00Z,44.5973,-63.5427,0.20,6.40,0.34,159,36
2019-07-23T04:00:00Z,44.5973,-63.5427,0.21,6.24,0.40,148,37
2019-07-23T04:20:00Z,44.5973,-63.5427,0.21,2.97,0.41,123,35
2019-07-23T04:40:00Z,44.5973,-63.5427,0.23,3.01,0.43,106,34
2019-07-23T05:20:00Z,44.5973,-63.5427,0.21,3.16,0.35,131,34
2019-07-23T05:40:00Z,44.5973,-63.5427,0.20,3.04,0.34,122,34
2019-07-23T06:00:00Z,44.5973,-63.5427,0.21,2.97,0.38,135,36
2019-07-23T06:20:00Z,44.5973,-63.5427,0.22,2.97,0.39,52,34
2019-07-23T06:40:00Z,44.5973,-63.5427,0.23,3.60,0.41,77,34
2019-07-23T07:00:00Z,44.5973,-63.5427,0.24,3.12,0.45,36,34
2019-07-23T07:20:00Z,44.5973,-63.5427,0.25,3.12,0.44,49,34
2019-07-23T07:40:00Z,44.5973,-63.5427,0.25,3.16,0.47,19,34
2019-07-23T08:00:00Z,44.5973,-63.5427,0.26,3.08,0.49,36,34
2019-07-23T08:20:00Z,44.5973,-63.5427,0.25,2.94,0.46,53,34
2019-07-23T08:40:00Z,44.5973,-63.5427,0.25,3.16,0.44,40,42
2019-07-23T09:00:00Z,44.5973,-63.5427,0.22,2.84,0.41,129,37
2019-07-23T09:20:00Z,44.5973,-63.5427,0.24,3.01,0.42,100,36
2019-07-23T09:40:00Z,44.5973,-63.5427,0.24,3.12,0.48,38,36
2019-07-23T10:00:00Z,44.5973,-63.5427,0.27,3.04,0.47,29,35
2019-07-23T10:20:00Z,44.5973,-63.5427,0.27,3.01,0.43,117,34
2019-07-23T10:40:00Z,44.5973,-63.5427,0.27,3.04,0.49,104,34
2019-07-23T11:00:00Z,44.5973,-63.5427,0.23,3.01,0.42,77,41
2019-07-23T11:20:00Z,44.5973,-63.5427,0.34,4.00,0.62,120,34
2019-07-23T11:40:00Z,44.5973,-63.5427,0.32,3.12,0.55,152,40
2019-07-23T12:00:00Z,44.5973,-63.5427,0.24,2.97,0.40,94,44
2019-07-23T12:20:00Z,44.5973,-63.5427,0.29,3.01,0.50,120,36
2019-07-23T12:40:00Z,44.5973,-63.5427,0.30,3.08,0.54,79,34
2019-07-23T13:00:00Z,44.5973,-63.5427,0.25,3.41,0.44,64,39
2019-07-23T13:20:00Z,44.5973,-63.5427,0.21,3.04,0.39,40,35
2019-07-23T13:40:00Z,44.5973,-63.5427,0.21,8.25,0.35,60,36
2019-07-23T14:00:00Z,44.5973,-63.5427,0.23,6.91,0.38,132,34
2019-07-23T14:20:00Z,44.5973,-63.5427,0.20,2.90,0.36,41,34
2019-07-23T14:40:00Z,44.5973,-63.5427,0.20,3.16,0.37,63,44
2019-07-23T15:00:00Z,44.5973,-63.5427,0.20,2.90,0.36,64,35
2019-07-23T15:20:00Z,44.5973,-63.5427,0.20,6.40,0.37,128,34
2019-07-23T15:40:00Z,44.5973,-63.5427,0.26,3.16,0.49,23,41
2019-07-23T16:00:00Z,44.5973,-63.5427,0.20,3.32,0.36,81,36
2019-07-23T16:40:00Z,44.5973,-63.5427,0.22,2.90,0.39,137,34
2019-07-23T17:00:00Z,44.5973,-63.5427,0.23,3.08,0.39,137,36
2019-07-23T17:20:00Z,44.5973,-63.5427,0.22,5.81,0.40,128,35
2019-07-23T17:40:00Z,44.5973,-63.5427,0.20,6.09,0.36,162,36
2019-07-23T18:00:00Z,44.5973,-63.5427,0.23,5.95,0.41,151,35
2019-07-23T18:20:00Z,44.5973,-63.5427,0.25,3.20,0.43,115,40
2019-07-23T18:40:00Z,44.5973,-63.5427,0.23,3.24,0.43,149,33
2019-07-23T19:00:00Z,44.5973,-63.5427,0.22,3.04,0.38,134,35
2019-07-23T19:20:00Z,44.5973,-63.5427,0.26,3.16,0.47,134,34
2019-07-23T19:40:00Z,44.5973,-63.5427,0.24,2.97,0.41,115,39
2019-07-23T20:00:00Z,44.5973,-63.5427,0.29,3.16,0.54,149,34
2019-07-23T20:20:00Z,44.5973,-63.5427,0.31,3.45,0.52,151,33
2019-07-23T20:40:00Z,44.5973,-63.5427,0.33,3.24,0.60,133,34
2019-07-23T21:00:00Z,44.5973,-63.5427,0.34,3.41,0.55,139,34
2019-07-23T21:20:00Z,44.5973,-63.5427,0.38,3.36,0.72,60,35
2019-07-23T21:40:00Z,44.5973,-63.5427,0.39,2.97,0.69,115,34
2019-07-23T22:00:00Z,44.5973,-63.5427,0.41,4.12,0.68,137,34
2019-07-23T22:20:00Z,44.5973,-63.5427,0.38,3.41,0.71,110,34
2019-07-23T22:40:00Z,44.5973,-63.5427,0.35,3.55,0.60,120,34
2019-07-23T23:00:00Z,44.5973,-63.5427,0.37,3.20,0.62,66,34
2019-07-23T23:20:00Z,44.5973,-63.5427,0.35,3.24,0.57,96,34
2019-07-23T23:40:00Z,44.5973,-63.5427,0.37,3.12,0.71,64,34
2019-07-24T00:00:00Z,44.5973,-63.5427,0.36,3.01,0.62,146,35
2019-07-24T00:20:00Z,44.5973,-63.5427,0.33,3.08,0.61,135,34
2019-07-24T00:40:00Z,44.5973,-63.5427,0.34,4.65,0.66,125,34
2019-07-24T01:00:00Z,44.5973,-63.5427,0.33,4.83,0.57,122,37
2019-07-24T01:20:00Z,44.5973,-63.5427,0.31,5.68,0.51,133,34
2019-07-24T01:40:00Z,44.5973,-63.5427,0.33,5.11,0.53,148,35
2019-07-24T02:00:00Z,44.5973,-63.5427,0.33,4.83,0.57,120,36
2019-07-24T02:20:00Z,44.5973,-63.5427,0.30,5.33,0.52,144,35
2019-07-24T02:40:00Z,44.5973,-63.5427,0.32,4.92,0.54,137,36
2019-07-24T03:00:00Z,44.5973,-63.5427,0.33,5.22,0.54,148,35
2019-07-24T03:20:00Z,44.5973,-63.5427,0.33,3.12,0.57,119,33
2019-07-24T03:40:00Z,44.5973,-63.5427,0.34,5.33,0.56,153,34
2019-07-24T04:00:00Z,44.5973,-63.5427,0.32,5.44,0.56,127,35
2019-07-24T04:20:00Z,44.5973,-63.5427,0.33,5.33,0.57,136,34
2019-07-24T04:40:00Z,44.5973,-63.5427,0.35,3.24,0.60,109,35
2019-07-24T05:00:00Z,44.5973,-63.5427,0.33,3.04,0.59,150,34
2019-07-24T05:20:00Z,44.5973,-63.5427,0.36,5.22,0.61,109,35
2019-07-24T05:40:00Z,44.5973,-63.5427,0.36,5.11,0.61,127,40
2019-07-24T06:00:00Z,44.5973,-63.5427,0.36,5.22,0.57,130,34
2019-07-24T06:20:00Z,44.5973,-63.5427,0.36,3.01,0.59,116,34
2019-07-24T06:40:00Z,44.5973,-63.5427,0.36,3.93,0.67,91,36
2019-07-24T07:00:00Z,44.5973,-63.5427,0.35,5.22,0.59,124,35
2019-07-24T07:20:00Z,44.5973,-63.5427,0.38,5.22,0.68,153,34
2019-07-24T07:40:00Z,44.5973,-63.5427,0.40,5.01,0.67,127,35
2019-07-24T08:00:00Z,44.5973,-63.5427,0.39,5.22,0.66,131,36
2019-07-24T08:20:00Z,44.5973,-63.5427,0.38,6.09,0.63,117,36
2019-07-24T08:40:00Z,44.5973,-63.5427,0.42,4.06,0.76,115,34
2019-07-24T09:00:00Z,44.5973,-63.5427,0.41,5.81,0.71,133,36
2019-07-24T09:20:00Z,44.5973,-63.5427,0.38,5.95,0.63,118,35
2019-07-24T09:40:00Z,44.5973,-63.5427,0.43,3.93,0.82,133,36
2019-07-24T10:00:00Z,44.5973,-63.5427,0.43,2.90,0.77,150,33
2019-07-24T10:20:00Z,44.5973,-63.5427,0.41,3.20,0.78,164,34
2019-07-24T10:40:00Z,44.5973,-63.5427,0.41,5.11,0.68,137,40
2019-07-24T11:00:00Z,44.5973,-63.5427,0.40,3.04,0.67,155,33
2019-07-24T11:20:00Z,44.5973,-63.5427,0.41,5.22,0.71,129,38
2019-07-24T11:40:00Z,44.5973,-63.5427,0.41,3.45,0.73,153,34
2019-07-24T12:00:00Z,44.5973,-63.5427,0.43,2.94,0.76,122,35
2019-07-24T12:20:00Z,44.5973,-63.5427,0.44,3.04,0.84,146,34
2019-07-24T12:40:00Z,44.5973,-63.5427,0.43,2.97,0.76,147,34
2019-07-24T13:00:00Z,44.5973,-63.5427,0.43,2.94,0.75,126,33
2019-07-24T13:20:00Z,44.5973,-63.5427,0.40,3.20,0.66,111,34
2019-07-24T13:40:00Z,44.5973,-63.5427,0.42,2.97,0.73,109,34
2019-07-24T14:00:00Z,44.5973,-63.5427,0.38,4.00,0.66,129,38
2019-07-24T14:20:00Z,44.5973,-63.5427,0.40,3.36,0.69,110,35
2019-07-24T14:40:00Z,44.5973,-63.5427,0.41,4.74,0.73,130,38
2019-07-24T15:20:00Z,44.5973,-63.5427,0.43,3.04,0.78,106,35
2019-07-24T15:40:00Z,44.5973,-63.5427,0.45,3.20,0.80,130,33
2019-07-24T16:00:00Z,44.5973,-63.5427,0.43,3.12,0.74,127,34
2019-07-24T16:20:00Z,44.5973,-63.5427,0.44,3.12,0.73,81,36
2019-07-24T16:40:00Z,44.5973,-63.5427,0.43,3.20,0.74,64,34
2019-07-24T17:00:00Z,44.5973,-63.5427,0.43,3.20,0.77,84,34
2019-07-24T17:20:00Z,44.5973,-63.5427,0.41,3.32,0.68,99,34
2019-07-24T17:40:00Z,44.5973,-63.5427,0.39,3.16,0.68,113,38
2019-07-24T18:00:00Z,44.5973,-63.5427,0.39,3.16,0.68,90,34
2019-07-24T18:20:00Z,44.5973,-63.5427,0.39,3.12,0.65,104,45
2019-07-24T18:40:00Z,44.5973,-63.5427,0.39,3.01,0.65,115,35
2019-07-24T19:00:00Z,44.5973,-63.5427,0.38,3.01,0.67,140,34
2019-07-24T19:20:00Z,44.5973,-63.5427,0.38,3.08,0.65,115,36
2019-07-24T19:40:00Z,44.5973,-63.5427,0.36,3.01,0.63,55,39
2019-07-24T20:00:00Z,44.5973,-63.5427,0.33,3.01,0.59,107,35
2019-07-24T20:20:00Z,44.5973,-63.5427,0.37,3.28,0.65,127,34
2019-07-24T20:40:00Z,44.5973,-63.5427,0.36,3.12,0.62,67,34
2019-07-24T21:00:00Z,44.5973,-63.5427,0.35,3.16,0.64,55,34
2019-07-24T21:20:00Z,44.5973,-63.5427,0.39,3.01,0.64,98,40
2019-07-24T21:40:00Z,44.5973,-63.5427,0.34,2.97,0.60,137,41
2019-07-24T22:00:00Z,44.5973,-63.5427,0.38,3.16,0.61,132,34
2019-07-24T22:40:00Z,44.5973,-63.5427,0.34,3.04,0.61,144,34
2019-07-24T23:00:00Z,44.5973,-63.5427,0.33,3.08,0.57,134,37
2019-07-24T23:20:00Z,44.5973,-63.5427,0.34,2.97,0.65,158,34
2019-07-24T23:40:00Z,44.5973,-63.5427,0.32,3.01,0.52,112,34
2019-07-25T00:00:00Z,44.5973,-63.5427,0.32,3.04,0.54,127,34
2019-07-25T00:20:00Z,44.5973,-63.5427,0.33,2.87,0.57,164,34
2019-07-25T00:40:00Z,44.5973,-63.5427,0.35,3.12,0.62,140,33
2019-07-25T01:00:00Z,44.5973,-63.5427,0.33,8.00,0.57,152,34
2019-07-25T01:20:00Z,44.5973,-63.5427,0.35,2.97,0.59,155,34
2019-07-25T01:40:00Z,44.5973,-63.5427,0.38,8.00,0.62,140,34
2019-07-25T02:00:00Z,44.5973,-63.5427,0.35,8.25,0.63,147,34
2019-07-25T02:20:00Z,44.5973,-63.5427,0.37,8.25,0.65,140,34
2019-07-25T02:40:00Z,44.5973,-63.5427,0.38,8.82,0.72,152,34
2019-07-25T03:00:00Z,44.5973,-63.5427,0.38,2.97,0.62,146,34
2019-07-25T03:20:00Z,44.5973,-63.5427,0.37,8.82,0.64,155,33
2019-07-25T03:40:00Z,44.5973,-63.5427,0.39,8.25,0.67,151,34
2019-07-25T04:00:00Z,44.5973,-63.5427,0.37,8.53,0.63,152,34
2019-07-25T04:20:00Z,44.5973,-63.5427,0.37,8.25,0.68,155,34
2019-07-25T04:40:00Z,44.5973,-63.5427,0.36,8.00,0.59,154,34
2019-07-25T05:00:00Z,44.5973,-63.5427,0.36,8.00,0.60,150,34
2019-07-25T05:20:00Z,44.5973,-63.5427,0.36,8.00,0.58,146,34
2019-07-25T05:40:00Z,44.5973,-63.5427,0.35,7.52,0.62,160,34